Location: Unspecified
(0.0000°N, 0.0000°E)
Time: 08:10:09
(UTC+00:00)

deb r/b Ablestar - Pass Details

Date: 22 December 2025
Orbit: 674 x 763 km, 66.8° (Epoch: 18 January)

Event Time Altitude Azimuth Distance (km) Brightness Sun altitude
Rises 18:58:41 0° 163° (SSE) 3,163 ? -13.7°
Reaches altitude 10° 19:02:32 10° 134° (SE) 2,258 ? -14.6°
Maximum altitude 19:04:38 12° 110° (ESE) 2,101 ? -15.1°
Enters shadow 19:04:38 12° 110° (ESE) 2,101 ? -15.1°
